Saint Bonnet de Bellac- Haute Vienne - France
Donnes mto: samedi / dimanche, 06/09/2009
Date Horaire Temp. E. Hum. E. P.atmo. Pluie Vent Direction Direction Ensoleilleme Solaire P. de rose Temp au vent Rafales
05/09/2009 08:00 5,9 C 89 % 1026,0 hPa 0,0 mm 0,0 km/h (0 Bft) E-NE 67 1 min 0 W/m 4,2 C 5,9 C 0,0 km/h (0 Bft)
05/09/2009 08:10 6,0 C 89 % 1026,0 hPa 0,0 mm 0,0 km/h (0 Bft) E-NE 67 10 min 0 W/m 4,3 C 6,0 C 0,0 km/h (0 Bft)
05/09/2009 08:20 6,3 C 89 % 1026,2 hPa 0,0 mm 0,0 km/h (0 Bft) E 90 10 min 0 W/m 4,6 C 6,3 C 0,0 km/h (0 Bft)
05/09/2009 08:30 6,8 C 89 % 1026,2 hPa 0,0 mm 0,0 km/h (0 Bft) SE 135 10 min 0 W/m 5,1 C 6,8 C 0,0 km/h (0 Bft)
05/09/2009 08:40 7,4 C 91 % 1026,3 hPa 0,0 mm 0,0 km/h (0 Bft) SE 135 10 min 0 W/m 6,0 C 7,4 C 0,0 km/h (0 Bft)
05/09/2009 08:50 8,1 C 91 % 1026,3 hPa 0,0 mm 0,0 km/h (0 Bft) SE 135 10 min 0 W/m 6,7 C 8,1 C 0,0 km/h (0 Bft)
05/09/2009 09:00 8,6 C 90 % 1026,3 hPa 0,0 mm 0,0 km/h (0 Bft) SE 135 10 min 0 W/m 7,1 C 8,6 C 0,0 km/h (0 Bft)
05/09/2009 09:10 9,1 C 90 % 1026,3 hPa 0,0 mm 0,0 km/h (0 Bft) E-SE 112 10 min 0 W/m 7,5 C 9,1 C 0,0 km/h (0 Bft)
05/09/2009 09:20 9,5 C 90 % 1026,4 hPa 0,0 mm 0,0 km/h (0 Bft) E 90 10 min 0 W/m 7,9 C 9,5 C 0,0 km/h (0 Bft)
05/09/2009 09:30 9,8 C 90 % 1026,5 hPa 0,0 mm 0,0 km/h (0 Bft) E-NE 67 10 min 0 W/m 8,2 C 9,8 C 0,0 km/h (0 Bft)
05/09/2009 09:40 10,4 C 90 % 1026,4 hPa 0,0 mm 0,0 km/h (0 Bft) E-NE 67 10 min 0 W/m 8,8 C 10,4 C 0,0 km/h (0 Bft)
05/09/2009 09:50 11,6 C 88 % 1026,9 hPa 0,0 mm 0,0 km/h (0 Bft) E-NE 67 10 min 0 W/m 9,7 C 11,6 C 0,0 km/h (0 Bft)
05/09/2009 10:00 12,7 C 86 % 1026,9 hPa 0,0 mm 0,0 km/h (0 Bft) NE 45 10 min 0 W/m 10,4 C 12,7 C 0,0 km/h (0 Bft)
05/09/2009 10:10 13,8 C 83 % 1027,1 hPa 0,0 mm 1,8 km/h (1 Bft) N-NE 22 10 min 0 W/m 11,0 C 13,8 C 4,0 km/h (1 Bft)
05/09/2009 10:20 14,5 C 80 % 1027,1 hPa 0,0 mm 0,4 km/h (0 Bft) E 90 10 min 0 W/m 11,1 C 14,5 C 3,6 km/h (1 Bft)
05/09/2009 10:30 15,1 C 78 % 1027,1 hPa 0,0 mm 1,1 km/h (1 Bft) N-NE 22 10 min 0 W/m 11,3 C 15,1 C 3,6 km/h (1 Bft)
05/09/2009 10:40 16,0 C 77 % 1027,2 hPa 0,0 mm 0,0 km/h (0 Bft) NO 315 10 min 0 W/m 12,0 C 16,0 C 0,0 km/h (0 Bft)
05/09/2009 10:50 16,8 C 73 % 1027,4 hPa 0,0 mm 0,0 km/h (0 Bft) NO 315 10 min 0 W/m 11,9 C 16,8 C 0,0 km/h (0 Bft)
05/09/2009 11:00 17,4 C 71 % 1027,4 hPa 0,0 mm 2,5 km/h (1 Bft) N 360 10 min 0 W/m 12,1 C 17,4 C 2,9 km/h (1 Bft)
05/09/2009 11:10 17,8 C 70 % 1027,4 hPa 0,0 mm 1,8 km/h (1 Bft) N-NE 22 10 min 0 W/m 12,3 C 17,8 C 3,6 km/h (1 Bft)
05/09/2009 11:20 18,3 C 65 % 1027,3 hPa 0,0 mm 0,7 km/h (0 Bft) N-NE 22 10 min 0 W/m 11,6 C 18,3 C 4,0 km/h (1 Bft)
05/09/2009 11:30 18,8 C 64 % 1027,4 hPa 0,0 mm 2,5 km/h (1 Bft) N 360 10 min 0 W/m 11,8 C 18,8 C 6,1 km/h (2 Bft)
05/09/2009 11:40 19,1 C 62 % 1027,4 hPa 0,0 mm 0,0 km/h (0 Bft) E 90 10 min 0 W/m 11,6 C 19,1 C 0,0 km/h (0 Bft)
05/09/2009 11:50 19,6 C 57 % 1027,5 hPa 0,0 mm 0,0 km/h (0 Bft) S-SO 202 10 min 0 W/m 10,8 C 19,6 C 0,0 km/h (0 Bft)
05/09/2009 12:00 19,9 C 58 % 1027,5 hPa 0,0 mm 0,4 km/h (0 Bft) E 90 10 min 0 W/m 11,4 C 19,9 C 0,4 km/h (0 Bft)
05/09/2009 12:10 19,8 C 59 % 1027,5 hPa 0,0 mm 1,1 km/h (1 Bft) N 360 10 min 0 W/m 11,6 C 19,8 C 1,1 km/h (1 Bft)
05/09/2009 12:20 19,8 C 57 % 1027,5 hPa 0,0 mm 1,1 km/h (1 Bft) N-NE 22 10 min 0 W/m 11,0 C 19,8 C 4,3 km/h (1 Bft)
05/09/2009 12:30 20,2 C 55 % 1027,5 hPa 0,0 mm 2,5 km/h (1 Bft) N-NE 22 10 min 0 W/m 10,9 C 20,2 C 4,0 km/h (1 Bft)
05/09/2009 12:40 20,1 C 55 % 1027,4 hPa 0,0 mm 2,5 km/h (1 Bft) N 360 10 min 0 W/m 10,8 C 20,1 C 2,5 km/h (1 Bft)
05/09/2009 12:50 19,8 C 55 % 1027,4 hPa 0,0 mm 1,8 km/h (1 Bft) N-NE 22 10 min 0 W/m 10,5 C 19,8 C 4,0 km/h (1 Bft)
05/09/2009 13:00 19,8 C 54 % 1027,6 hPa 0,0 mm 0,4 km/h (0 Bft) N-NE 22 10 min 0 W/m 10,2 C 19,8 C 3,6 km/h (1 Bft)
05/09/2009 13:10 19,9 C 53 % 1027,4 hPa 0,0 mm 2,9 km/h (1 Bft) N-NO 337 10 min 0 W/m 10,0 C 19,9 C 6,5 km/h (2 Bft)
05/09/2009 13:20 19,7 C 54 % 1027,4 hPa 0,0 mm 1,8 km/h (1 Bft) N-NO 337 10 min 0 W/m 10,1 C 19,7 C 4,0 km/h (1 Bft)
05/09/2009 13:30 19,9 C 54 % 1027,4 hPa 0,0 mm 1,1 km/h (1 Bft) N-NO 337 10 min 0 W/m 10,3 C 19,9 C 4,0 km/h (1 Bft)
05/09/2009 13:40 20,4 C 53 % 1027,5 hPa 0,0 mm 2,2 km/h (1 Bft) N-NO 337 10 min 0 W/m 10,5 C 20,4 C 5,0 km/h (1 Bft)
05/09/2009 13:50 20,8 C 51 % 1027,5 hPa 0,0 mm 2,5 km/h (1 Bft) S-SE 157 10 min 0 W/m 10,3 C 20,8 C 4,3 km/h (1 Bft)
05/09/2009 14:00 20,7 C 50 % 1027,5 hPa 0,0 mm 4,0 km/h (1 Bft) O-NO 292 10 min 0 W/m 9,9 C 20,7 C 7,6 km/h (2 Bft)
05/09/2009 14:10 20,5 C 48 % 1027,3 hPa 0,0 mm 1,4 km/h (1 Bft) NE 45 10 min 0 W/m 9,1 C 20,5 C 4,0 km/h (1 Bft)
05/09/2009 14:20 20,6 C 49 % 1027,3 hPa 0,0 mm 0,7 km/h (0 Bft) NO 315 10 min 0 W/m 9,5 C 20,6 C 4,3 km/h (1 Bft)
05/09/2009 14:30 20,8 C 48 % 1027,2 hPa 0,0 mm 0,0 km/h (0 Bft) N-NO 337 10 min 0 W/m 9,4 C 20,8 C 0,0 km/h (0 Bft)
05/09/2009 14:40 20,9 C 47 % 1027,2 hPa 0,0 mm 0,4 km/h (0 Bft) N 360 10 min 0 W/m 9,2 C 20,9 C 0,4 km/h (0 Bft)
05/09/2009 14:50 21,1 C 47 % 1027,3 hPa 0,0 mm 2,9 km/h (1 Bft) N 360 10 min 0 W/m 9,3 C 21,1 C 8,6 km/h (2 Bft)
05/09/2009 15:00 20,9 C 46 % 1027,2 hPa 0,0 mm 2,2 km/h (1 Bft) N 360 10 min 0 W/m 8,8 C 20,9 C 4,3 km/h (1 Bft)
05/09/2009 15:10 20,5 C 46 % 1027,2 hPa 0,0 mm 4,0 km/h (1 Bft) N 360 10 min 0 W/m 8,5 C 20,5 C 4,3 km/h (1 Bft)
05/09/2009 15:20 20,2 C 48 % 1027,1 hPa 0,0 mm 3,6 km/h (1 Bft) E 90 10 min 0 W/m 8,8 C 20,2 C 4,0 km/h (1 Bft)
05/09/2009 15:30 20,3 C 47 % 1027,1 hPa 0,0 mm 1,8 km/h (1 Bft) O-SO 247 10 min 0 W/m 8,6 C 20,3 C 6,5 km/h (2 Bft)
05/09/2009 15:40 20,3 C 46 % 1027,0 hPa 0,0 mm 1,4 km/h (1 Bft) N-NE 22 10 min 0 W/m 8,3 C 20,3 C 4,0 km/h (1 Bft)
05/09/2009 15:50 20,1 C 48 % 1027,0 hPa 0,0 mm 1,1 km/h (1 Bft) NO 315 10 min 0 W/m 8,7 C 20,1 C 4,0 km/h (1 Bft)
05/09/2009 16:00 19,9 C 48 % 1027,0 hPa 0,0 mm 3,2 km/h (1 Bft) N-NO 337 10 min 0 W/m 8,6 C 19,9 C 3,6 km/h (1 Bft)
05/09/2009 16:10 19,8 C 49 % 1026,9 hPa 0,0 mm 0,4 km/h (0 Bft) E-NE 67 10 min 0 W/m 8,8 C 19,8 C 3,2 km/h (1 Bft)
05/09/2009 16:20 19,8 C 50 % 1027,0 hPa 0,0 mm 2,5 km/h (1 Bft) O-SO 247 10 min 0 W/m 9,1 C 19,8 C 6,1 km/h (2 Bft)
05/09/2009 16:30 19,8 C 49 % 1026,8 hPa 0,0 mm 1,8 km/h (1 Bft) N-NO 337 10 min 0 W/m 8,8 C 19,8 C 4,3 km/h (1 Bft)
05/09/2009 16:40 19,8 C 49 % 1026,9 hPa 0,0 mm 3,6 km/h (1 Bft) O-NO 292 10 min 0 W/m 8,8 C 19,8 C 4,0 km/h (1 Bft)
05/09/2009 16:50 20,2 C 50 % 1026,8 hPa 0,0 mm 1,4 km/h (1 Bft) O-NO 292 10 min 0 W/m 9,4 C 20,2 C 2,9 km/h (1 Bft)
05/09/2009 17:00 20,6 C 49 % 1026,8 hPa 0,0 mm 2,2 km/h (1 Bft) N-NE 22 10 min 0 W/m 9,5 C 20,6 C 4,3 km/h (1 Bft)
05/09/2009 17:10 20,6 C 48 % 1026,9 hPa 0,0 mm 4,0 km/h (1 Bft) N-NE 22 10 min 0 W/m 9,2 C 20,6 C 4,0 km/h (1 Bft)
05/09/2009 17:20 20,3 C 49 % 1026,9 hPa 0,0 mm 0,0 km/h (0 Bft) N-NO 337 10 min 0 W/m 9,2 C 20,3 C 0,0 km/h (0 Bft)
05/09/2009 17:30 20,0 C 49 % 1026,8 hPa 0,0 mm 1,1 km/h (1 Bft) NE 45 10 min 0 W/m 9,0 C 20,0 C 2,9 km/h (1 Bft)
05/09/2009 17:40 19,6 C 50 % 1026,8 hPa 0,0 mm 0,4 km/h (0 Bft) N-NE 22 10 min 0 W/m 8,9 C 19,6 C 1,4 km/h (1 Bft)
05/09/2009 17:50 19,3 C 49 % 1026,7 hPa 0,0 mm 1,8 km/h (1 Bft) NE 45 10 min 0 W/m 8,3 C 19,3 C 4,3 km/h (1 Bft)
05/09/2009 18:00 19,1 C 50 % 1026,8 hPa 0,0 mm 5,0 km/h (1 Bft) N 360 10 min 0 W/m 8,4 C 19,1 C 7,2 km/h (2 Bft)
05/09/2009 18:10 18,9 C 51 % 1026,7 hPa 0,0 mm 1,1 km/h (1 Bft) NE 45 10 min 0 W/m 8,5 C 18,9 C 4,0 km/h (1 Bft)
05/09/2009 18:20 19,1 C 51 % 1026,8 hPa 0,0 mm 2,2 km/h (1 Bft) N-NO 337 10 min 0 W/m 8,7 C 19,1 C 4,3 km/h (1 Bft)
05/09/2009 18:30 19,1 C 51 % 1026,8 hPa 0,0 mm 0,0 km/h (0 Bft) N-NE 22 10 min 0 W/m 8,7 C 19,1 C 0,0 km/h (0 Bft)
05/09/2009 18:40 18,9 C 50 % 1026,8 hPa 0,0 mm 0,7 km/h (0 Bft) N-NO 337 10 min 0 W/m 8,2 C 18,9 C 0,7 km/h (0 Bft)
05/09/2009 18:50 18,8 C 51 % 1026,9 hPa 0,0 mm 0,0 km/h (0 Bft) N-NE 22 10 min 0 W/m 8,4 C 18,8 C 0,0 km/h (0 Bft)
05/09/2009 19:00 18,6 C 52 % 1026,9 hPa 0,0 mm 0,0 km/h (0 Bft) N-NE 22 10 min 0 W/m 8,5 C 18,6 C 0,0 km/h (0 Bft)
05/09/2009 19:10 18,4 C 52 % 1026,9 hPa 0,0 mm 2,9 km/h (1 Bft) N-NE 22 10 min 0 W/m 8,4 C 18,4 C 3,2 km/h (1 Bft)
05/09/2009 19:20 18,3 C 51 % 1026,8 hPa 0,0 mm 4,7 km/h (1 Bft) E-NE 67 10 min 0 W/m 8,0 C 18,3 C 7,2 km/h (2 Bft)
05/09/2009 19:30 18,1 C 52 % 1026,9 hPa 0,0 mm 0,7 km/h (0 Bft) NE 45 10 min 0 W/m 8,1 C 18,1 C 0,7 km/h (0 Bft)
05/09/2009 19:40 17,8 C 53 % 1026,8 hPa 0,0 mm 0,0 km/h (0 Bft) N-NE 22 10 min 0 W/m 8,1 C 17,8 C 0,0 km/h (0 Bft)
05/09/2009 19:50 17,5 C 53 % 1026,7 hPa 0,0 mm 0,0 km/h (0 Bft) N 360 10 min 0 W/m 7,8 C 17,5 C 0,0 km/h (0 Bft)
05/09/2009 20:00 17,1 C 54 % 1026,7 hPa 0,0 mm 0,7 km/h (0 Bft) N 360 10 min 0 W/m 7,7 C 17,1 C 4,0 km/h (1 Bft)
05/09/2009 20:10 16,6 C 55 % 1026,8 hPa 0,0 mm 0,0 km/h (0 Bft) N 360 10 min 0 W/m 7,5 C 16,6 C 0,0 km/h (0 Bft)
05/09/2009 20:20 16,1 C 57 % 1026,7 hPa 0,0 mm 0,0 km/h (0 Bft) N 360 0 min 0 W/m 7,6 C 16,1 C 0,0 km/h (0 Bft)
05/09/2009 20:30 15,5 C 58 % 1026,7 hPa 0,0 mm 0,0 km/h (0 Bft) N 360 0 min 0 W/m 7,3 C 15,5 C 0,0 km/h (0 Bft)
05/09/2009 20:40 14,9 C 59 % 1026,7 hPa 0,0 mm 0,0 km/h (0 Bft) N 360 0 min 0 W/m 7,0 C 14,9 C 0,0 km/h (0 Bft)
05/09/2009 20:50 14,3 C 61 % 1026,8 hPa 0,0 mm 0,0 km/h (0 Bft) N 360 0 min 0 W/m 6,9 C 14,3 C 0,0 km/h (0 Bft)
05/09/2009 21:00 13,8 C 62 % 1026,9 hPa 0,0 mm 0,0 km/h (0 Bft) N 360 0 min 0 W/m 6,6 C 13,8 C 0,0 km/h (0 Bft)
05/09/2009 21:10 13,2 C 64 % 1027,0 hPa 0,0 mm 0,0 km/h (0 Bft) N 360 0 min 0 W/m 6,5 C 13,2 C 0,0 km/h (0 Bft)
05/09/2009 21:20 12,8 C 65 % 1027,1 hPa 0,0 mm 0,0 km/h (0 Bft) N 360 0 min 0 W/m 6,4 C 12,8 C 0,0 km/h (0 Bft)
05/09/2009 21:30 12,3 C 66 % 1027,2 hPa 0,0 mm 0,0 km/h (0 Bft) N 360 0 min 0 W/m 6,1 C 12,3 C 0,0 km/h (0 Bft)
05/09/2009 21:40 11,8 C 68 % 1027,1 hPa 0,0 mm 0,0 km/h (0 Bft) N 360 0 min 0 W/m 6,1 C 11,8 C 0,0 km/h (0 Bft)
05/09/2009 21:50 11,4 C 69 % 1027,2 hPa 0,0 mm 0,0 km/h (0 Bft) N 360 0 min 0 W/m 5,9 C 11,4 C 0,0 km/h (0 Bft)
05/09/2009 22:00 11,1 C 70 % 1027,3 hPa 0,0 mm 0,0 km/h (0 Bft) N 360 0 min 0 W/m 5,8 C 11,1 C 0,0 km/h (0 Bft)
05/09/2009 22:10 10,8 C 71 % 1027,4 hPa 0,0 mm 0,0 km/h (0 Bft) N 360 0 min 0 W/m 5,8 C 10,8 C 0,0 km/h (0 Bft)
05/09/2009 22:20 10,6 C 72 % 1027,4 hPa 0,0 mm 0,0 km/h (0 Bft) O 270 0 min 0 W/m 5,8 C 10,6 C 0,0 km/h (0 Bft)
05/09/2009 22:30 10,3 C 73 % 1027,3 hPa 0,0 mm 0,0 km/h (0 Bft) O 270 0 min 0 W/m 5,7 C 10,3 C 0,0 km/h (0 Bft)
05/09/2009 22:40 10,1 C 74 % 1027,4 hPa 0,0 mm 0,0 km/h (0 Bft) O 270 0 min 0 W/m 5,7 C 10,1 C 0,0 km/h (0 Bft)
05/09/2009 22:50 9,9 C 74 % 1027,4 hPa 0,0 mm 0,0 km/h (0 Bft) S-SO 202 0 min 0 W/m 5,5 C 9,9 C 0,0 km/h (0 Bft)
05/09/2009 23:00 9,7 C 75 % 1027,5 hPa 0,0 mm 0,0 km/h (0 Bft) S-SO 202 0 min 0 W/m 5,5 C 9,7 C 0,0 km/h (0 Bft)
05/09/2009 23:10 9,5 C 76 % 1027,5 hPa 0,0 mm 0,0 km/h (0 Bft) S-SO 202 0 min 0 W/m 5,5 C 9,5 C 0,0 km/h (0 Bft)
05/09/2009 23:20 9,5 C 77 % 1027,3 hPa 0,0 mm 0,0 km/h (0 Bft) E-NE 67 0 min 0 W/m 5,7 C 9,5 C 0,0 km/h (0 Bft)
05/09/2009 23:30 9,4 C 78 % 1027,5 hPa 0,0 mm 0,0 km/h (0 Bft) NE 45 0 min 0 W/m 5,8 C 9,4 C 0,0 km/h (0 Bft)
05/09/2009 23:40 9,4 C 79 % 1027,5 hPa 0,0 mm 0,0 km/h (0 Bft) NE 45 0 min 0 W/m 5,9 C 9,4 C 0,0 km/h (0 Bft)
05/09/2009 23:50 9,3 C 79 % 1027,5 hPa 0,0 mm 0,0 km/h (0 Bft) SE 135 0 min 0 W/m 5,8 C 9,3 C 0,0 km/h (0 Bft)
06/09/2009 00:00 9,3 C 80 % 1027,5 hPa 0,0 mm 0,0 km/h (0 Bft) SE 135 0 min 0 W/m 6,0 C 9,3 C 0,0 km/h (0 Bft)
06/09/2009 00:10 9,5 C 80 % 1027,6 hPa 0,0 mm 0,0 km/h (0 Bft) E-SE 112 0 min 0 W/m 6,2 C 9,5 C 0,0 km/h (0 Bft)
06/09/2009 00:20 9,5 C 80 % 1027,7 hPa 0,0 mm 0,0 km/h (0 Bft) E-SE 112 0 min 0 W/m 6,2 C 9,5 C 0,0 km/h (0 Bft)
06/09/2009 00:30 9,6 C 80 % 1027,7 hPa 0,0 mm 0,0 km/h (0 Bft) E 90 0 min 0 W/m 6,3 C 9,6 C 0,0 km/h (0 Bft)
06/09/2009 00:40 9,5 C 81 % 1027,7 hPa 0,0 mm 0,0 km/h (0 Bft) E 90 0 min 0 W/m 6,4 C 9,5 C 0,0 km/h (0 Bft)
06/09/2009 00:50 9,4 C 81 % 1027,6 hPa 0,0 mm 0,0 km/h (0 Bft) E-SE 112 0 min 0 W/m 6,3 C 9,4 C 0,0 km/h (0 Bft)
06/09/2009 01:00 9,2 C 80 % 1027,5 hPa 0,0 mm 0,4 km/h (0 Bft) E 90 0 min 0 W/m 5,9 C 9,2 C 0,4 km/h (0 Bft)
06/09/2009 01:10 9,1 C 81 % 1027,4 hPa 0,0 mm 0,0 km/h (0 Bft) E 90 0 min 0 W/m 6,0 C 9,1 C 0,0 km/h (0 Bft)
06/09/2009 01:20 9,1 C 82 % 1027,3 hPa 0,0 mm 0,7 km/h (0 Bft) E 90 0 min 0 W/m 6,2 C 9,1 C 0,7 km/h (0 Bft)
06/09/2009 01:30 8,9 C 84 % 1027,1 hPa 0,0 mm 0,0 km/h (0 Bft) E 90 0 min 0 W/m 6,3 C 8,9 C 0,0 km/h (0 Bft)
06/09/2009 01:40 8,8 C 84 % 1027,1 hPa 0,0 mm 0,4 km/h (0 Bft) E 90 0 min 0 W/m 6,2 C 8,8 C 0,4 km/h (0 Bft)
06/09/2009 01:50 8,7 C 84 % 1027,1 hPa 0,0 mm 0,0 km/h (0 Bft) E-NE 67 0 min 0 W/m 6,2 C 8,7 C 0,0 km/h (0 Bft)
06/09/2009 02:00 8,5 C 84 % 1027,2 hPa 0,0 mm 0,0 km/h (0 Bft) E-NE 67 0 min 0 W/m 6,0 C 8,5 C 0,0 km/h (0 Bft)
06/09/2009 02:10 8,4 C 84 % 1027,2 hPa 0,0 mm 0,0 km/h (0 Bft) E-SE 112 0 min 0 W/m 5,9 C 8,4 C 0,0 km/h (0 Bft)
06/09/2009 02:20 8,3 C 84 % 1027,1 hPa 0,0 mm 0,0 km/h (0 Bft) S-SE 157 0 min 0 W/m 5,8 C 8,3 C 0,0 km/h (0 Bft)
06/09/2009 02:30 8,1 C 84 % 1027,0 hPa 0,0 mm 0,0 km/h (0 Bft) SE 135 0 min 0 W/m 5,6 C 8,1 C 0,0 km/h (0 Bft)
06/09/2009 02:40 7,9 C 84 % 1026,9 hPa 0,0 mm 0,0 km/h (0 Bft) S-SE 157 0 min 0 W/m 5,4 C 7,9 C 0,0 km/h (0 Bft)
06/09/2009 02:50 7,8 C 85 % 1026,9 hPa 0,0 mm 0,0 km/h (0 Bft) E-SE 112 0 min 0 W/m 5,4 C 7,8 C 0,0 km/h (0 Bft)
06/09/2009 03:02 7,9 C 85 % 1026,8 hPa 0,0 mm 0,4 km/h (0 Bft) E-NE 67 0 min 0 W/m 5,5 C 7,9 C 4,0 km/h (1 Bft)
06/09/2009 03:10 7,8 C 86 % 1026,7 hPa 0,0 mm 1,1 km/h (1 Bft) E-SE 112 0 min 0 W/m 5,6 C 7,8 C 2,9 km/h (1 Bft)
06/09/2009 03:20 7,8 C 86 % 1026,8 hPa 0,0 mm 0,0 km/h (0 Bft) SE 135 0 min 0 W/m 5,6 C 7,8 C 0,0 km/h (0 Bft)
06/09/2009 03:30 7,6 C 86 % 1026,9 hPa 0,0 mm 0,0 km/h (0 Bft) E-SE 112 0 min 0 W/m 5,4 C 7,6 C 0,0 km/h (0 Bft)
06/09/2009 03:40 7,7 C 86 % 1026,8 hPa 0,0 mm 0,0 km/h (0 Bft) E 90 0 min 0 W/m 5,5 C 7,7 C 2,9 km/h (1 Bft)
06/09/2009 03:50 7,6 C 86 % 1026,7 hPa 0,0 mm 1,1 km/h (1 Bft) E 90 0 min 0 W/m 5,4 C 7,6 C 4,3 km/h (1 Bft)
06/09/2009 04:00 7,6 C 87 % 1026,6 hPa 0,0 mm 0,0 km/h (0 Bft) E-SE 112 0 min 0 W/m 5,6 C 7,6 C 2,9 km/h (1 Bft)
06/09/2009 04:10 7,6 C 87 % 1026,5 hPa 0,0 mm 2,5 km/h (1 Bft) NE 45 0 min 0 W/m 5,6 C 7,6 C 2,5 km/h (1 Bft)
06/09/2009 04:20 7,6 C 88 % 1026,4 hPa 0,0 mm 2,2 km/h (1 Bft) E-NE 67 0 min 0 W/m 5,7 C 7,6 C 3,6 km/h (1 Bft)
06/09/2009 04:30 7,6 C 88 % 1026,3 hPa 0,0 mm 0,0 km/h (0 Bft) SE 135 0 min 0 W/m 5,7 C 7,6 C 0,0 km/h (0 Bft)
06/09/2009 04:40 7,5 C 88 % 1026,3 hPa 0,0 mm 1,8 km/h (1 Bft) SE 135 0 min 0 W/m 5,6 C 7,5 C 4,3 km/h (1 Bft)
06/09/2009 04:50 7,4 C 88 % 1026,4 hPa 0,0 mm 0,0 km/h (0 Bft) E 90 0 min 0 W/m 5,5 C 7,4 C 0,0 km/h (0 Bft)
06/09/2009 05:00 7,2 C 88 % 1026,4 hPa 0,0 mm 0,0 km/h (0 Bft) NE 45 0 min 0 W/m 5,3 C 7,2 C 0,0 km/h (0 Bft)
06/09/2009 05:10 7,1 C 88 % 1026,3 hPa 0,0 mm 0,0 km/h (0 Bft) E 90 0 min 0 W/m 5,2 C 7,1 C 0,0 km/h (0 Bft)
06/09/2009 05:20 7,1 C 88 % 1026,2 hPa 0,0 mm 0,0 km/h (0 Bft) E 90 0 min 0 W/m 5,2 C 7,1 C 0,0 km/h (0 Bft)
06/09/2009 05:30 7,0 C 88 % 1026,2 hPa 0,0 mm 0,4 km/h (0 Bft) E-NE 67 0 min 0 W/m 5,2 C 7,0 C 2,9 km/h (1 Bft)
06/09/2009 05:40 6,9 C 87 % 1026,2 hPa 0,0 mm 2,2 km/h (1 Bft) E 90 0 min 0 W/m 4,9 C 6,9 C 2,2 km/h (1 Bft)
06/09/2009 05:50 6,8 C 88 % 1026,0 hPa 0,0 mm 0,0 km/h (0 Bft) SE 135 0 min 0 W/m 5,0 C 6,8 C 0,0 km/h (0 Bft)
06/09/2009 06:00 6,8 C 88 % 1026,1 hPa 0,0 mm 0,0 km/h (0 Bft) E 90 0 min 0 W/m 5,0 C 6,8 C 0,0 km/h (0 Bft)
06/09/2009 06:10 6,8 C 88 % 1026,0 hPa 0,0 mm 0,0 km/h (0 Bft) E 90 0 min 0 W/m 5,0 C 6,8 C 0,0 km/h (0 Bft)
06/09/2009 06:20 6,6 C 88 % 1026,0 hPa 0,0 mm 0,0 km/h (0 Bft) SE 135 0 min 0 W/m 4,8 C 6,6 C 0,0 km/h (0 Bft)
06/09/2009 06:30 6,6 C 88 % 1026,1 hPa 0,0 mm 0,0 km/h (0 Bft) S-SE 157 0 min 0 W/m 4,8 C 6,6 C 0,0 km/h (0 Bft)
06/09/2009 06:40 6,4 C 88 % 1026,0 hPa 0,0 mm 0,0 km/h (0 Bft) E-SE 112 0 min 0 W/m 4,6 C 6,4 C 0,0 km/h (0 Bft)
06/09/2009 06:50 6,4 C 89 % 1026,0 hPa 0,0 mm 0,0 km/h (0 Bft) E-SE 112 0 min 0 W/m 4,7 C 6,4 C 0,0 km/h (0 Bft)
06/09/2009 07:00 6,4 C 89 % 1026,0 hPa 0,0 mm 1,8 km/h (1 Bft) E 90 0 min 0 W/m 4,7 C 6,4 C 3,2 km/h (1 Bft)
06/09/2009 07:10 6,4 C 89 % 1025,9 hPa 0,0 mm 0,0 km/h (0 Bft) NE 45 0 min 0 W/m 4,7 C 6,4 C 0,0 km/h (0 Bft)
06/09/2009 07:20 6,3 C 89 % 1025,9 hPa 0,0 mm 0,0 km/h (0 Bft) E 90 0 min 0 W/m 4,6 C 6,3 C 0,0 km/h (0 Bft)
06/09/2009 07:30 6,3 C 89 % 1025,8 hPa 0,0 mm 0,0 km/h (0 Bft) E-NE 67 0 min 0 W/m 4,6 C 6,3 C 0,0 km/h (0 Bft)
_ Min-Heure 08:00 15:40 07:30 - 07:30 - - - - 08:00 08:00 07:30
Minimum _ 5,9 C 46 % 1025,8 hPa - 0,0 km/h (0 Bft) - - - - 4,2 C 5,9 C 0,0 km/h (0 Bft)
_ Max-Heure 14:50 08:50 00:40 07:30 18:00 - - 20:10 07:30 11:10 14:50 14:50
Maximum _ 21,1 C 91 % 1027,7 hPa 0,0 mm 5,0 km/h
N (1 Bft)
- - 10 min 0 W/m 12,3 C 21,1 C 8,6 km/h
N (2 Bft)
Moyenne _ 12,8 C 71 % 1026,9 hPa #0,0 mm 0,7 km/h (0 Bft) N - 5 min 0 W/m 7,3 C 12,8 C 1,5 km/h (1 Bft)
Saint Bonnet de Bellac- Haute Vienne - France